NOAA 16 DEB

Satellite information

Favourite Embed

Satellite Type and Status

DEBRISIN ORBIT

Key statistics

Satellite NOAA 16 DEB at a glance.

Uptime

9156

Days in orbit

Revolutions

≈ 14.3

Per day

Orbit

SSO

Sun Synchronous Orbit

Inclination

98.6

Latest

Satellite identification and parameters

Extended collection of information and parameters for NOAA 16 DEB.

Object identification

Identified? True

Debris? True

Object name: NOAA 16 DEB

International designator: 2000-055CY

Object number (NORAD): 41165

Object ID (CCSDS): 41165

Country: UNITED STATES OF AMERICA (US)

Current information (Y/N): Y

RCS size: SMALL

Orbital parameters

Period: 100.939 minutes

Inclination: 98.6303 deg

SMA: 7181.225 km

Apoapsis: 819.56 km

Periapsis: 786.62 km

RAAN: 313.4613 deg

Eccentricy: 0.00229347

Argument of periapsis: 61.9384 deg

Mean anomaly: 298.4112 deg

Mean motion: 14.26609126 rev/day

Mean motion (dot): 0.00005604 rev/day2

B* drag term: 0.0023307898 1/REarth

Two-line elements (TLE)

Creation date: Oct. 15, 2025, 2:21 a.m.

Reference frame: TEME

Reference center: EARTH

Epoch: Oct. 14, 2025, 12:45 p.m. UTC

TLE line 0: 0 NOAA 16 DEB

TLE line 1: 1 41165U 00055CY 25287.53161504 .00005604 00000-0 23308-2 0 9999

TLE line 2: 2 41165 98.6303 313.4613 0022935 61.9384 298.4112 14.26609126508794

Live tracking on map

Real-time ground track for satellite NOAA 16 DEB.

In-orbit conjunctions

A list of the most updated potential collisions computed for object NOAA 16 DEB.

Target Orbit TCA Probability of collision Miss distance Type
COSMOS 839 DEB * MEO 2025-08-27 18:12:32 0.0001074577 95.0 (m) DEBRIS
COSMOS 1603 LEO 2024-11-25 08:39:35 0.001330347 126.0 (m) PAYLOAD
CZ-6A DEB LEO 2024-11-23 09:03:17 0.0001227443 557.0 (m) DEBRIS

Associated space launch

The NOAA K, L and M POES satellites begin the fifth generation of improved environmental monitoring in support of NOAA missions. The instrument payload has significant improvements and additions/deletions. The instrument changes have effected the spacecraft subsystems and data formats.

NOAA 16 DEB was lifted into orbit during the mission ‘Titan II SLV | NOAA 16’, on board a Titan II SLV space rocket.

The launch took place on Sept. 21, 2000, 10:22 a.m. from Space Launch Complex 4W.

For more information about the launch, click the button.

Launch to space Titan II SLV | NOAA 16
Titan II SLV | NOAA 16

Agency: N/A

Status: Launch Successful

Launch date: Sept. 21, 2000, 10:22 a.m. UTC

Rocket: Titan II SLV

Launch pad: Space Launch Complex 4W

Location: Vandenberg SFB, CA, USA

...

Latest news about this satellite

There are no fresh news available about this satellite. Check back as we update our databases every day.


Newsletter sign-up

Weekly statistics, charts and insights to help you stay on top of the space industry.